SCP
-0 -0 0 0 -0 -0 0 -0 -0 -0 0 -0 0 -0 -0 -0 0 0 0 -0 -0 -0 -0 -0 -0 -0 -0 -0 -0 0 0 0 0 0 0 0 0 0 0 0 0 0 0 0 0 0 0 0 0
-0 -0 0 -0 -0 0 0 0 0 0 0 0 0 -0 -0 -0 0 0 0 -0 -0 -0 -0 -0 -0 -0 -0 0 0 0 0 0 0 0 0 0 0 0 0 0 0 0 0 0 0 0 0 0 0
0 0 0 0 0 0 0 0 0 0 -0 -0 -0 -0 -0 0 0 0 0 -0 -0 -0 -0 -0 -0 -0 -0 0 0 0 0 0 0 0 0 0 0 0 0 0 0 0 0 0 0 0 0 0 0
0 0 0 -0 -0 0 -0 -0 -0 -0 -0 -0 -0 -0 -0 0 -0 0 -0 -0 -0 -0 -0 -0 -0 -0 -0 0 0 0 0 0 0 0 0 0 0 0 0 0 0 0 0 0 0 0 0 0 0
0 0 -0 0 -0 -0 -0 -0 -0 -0 -0 -0 -0 -0 -0 -0 0 -0 -0 -0 -0 -0 -0 -0 -0 -0 -0 0 0 0 0 0 0 0 0 0 0 0 0 0 0 0 0 0 0 0 0 0 0
0 0 -0 -0 -0 0 0 0 0 -0 -0 -0 -0 -0 0 -0 -0 -0 -0 -0 -0 -0 -0 -0 -0 0 0 0 0 0 0 0 0 0 0 0 0 0 0 0 0 0 0 0 0 0 0 0 0
0 0 0 -0 -0 -0 0 -0 0 -0 0 0 -0 -0 0 -0 -0 -0 -0 -0 -0 0 0 0 0 0 0 0 0 0 0 0 0 0 0 0 0 0 0 0 0 0 0 0 0 0 0 0 0
0 0 0 -0 0 -0 -0 -0 -0 -0 -0 -0 -0 -0 -0 -0 -0 -0 -0 0 0 0 0 0 0 0 0 0 0 0 0 0 0 0 0 0 0 0 0 0 0 0 0 0 0 0 0 0 0
0 0 -0 -0 -0 -0 0 0 -0 -0 -0 0 0 -0 0 -0 -0 -0 -0 0 0 0 0 0 0 0 0 0 0 0 0 0 0 0 0 0 -0 0 0 0 0 0 0 0 0 0 0 0 0
0 -0 0 0 0 0 0 -0 -0 -0 0 0 0 0 0 -0 -0 -0 -0 0 0 0 0 0 0 0 0 0 0 0 0 0 0 0 0 -0 0 0 0 0 0 -0 0 0 0 0 0 0 0
0 -0 0 0 0 -0 -0 -0 -0 -0 -0 -0 0 0 0 -0 -0 -0 0 0 0 0 0 0 0 0 0 0 0 0 0 0 0 0 0 0 0 0 0 0 0 0 0 0 0 0 0 0 0
0 0 0 0 0 -0 -0 0 -0 -0 0 0 0 0 -0 -0 0 0 0 0 0 0 0 0 0 0 0 0 0 0 0 0 0 0 0 0 0 0 0 0 0 0 0 0 0 0 0 0 0
-0 0 0 -0 -0 -0 -0 -0 0 0 0 0 0 0 0 0 0 0 0 0 0 0 0 0 0 0 0 0 0 0 0 0 0 0 0 0 0 0 0 0 0 0 0 0 0 0 0 0 0
-0 -0 0 0 0 0 -0 0 0 0 0 0 0 0 0 0 0 0 0 0 0 1 1 0 0 0 0 0 0 0 0 0 0 0 0 0 0 0 0 0 0 0 0 0 0 0 0 0 0
0 0 0 0 0 0 -0 -0 0 0 0 0 0 0 0 0 0 0 0 0 0 0 0 0 0 0 0 0 0 0 0 0 0 0 0 0 0 0 0 0 0 0 1 0 0 0 0 0 0
-0 0 0 0 0 0 0 0 0 0 0 0 0 0 0 1 1 1 1 1 0 0 0 0 0 0 0 0 0 0 0 0 0 0 0 0 0 0 0 0 0 0 0 0 0 1 0 1 1
0 0 0 0 0 0 0 0 0 0 0 0 0 0 1 1 1 1 0 0 0 0 0 0 0 0 0 0 0 0 0 0 0 0 0 0 0 0 0 0 0 0 0 0 0 1 0 0 0
0 0 0 0 0 0 0 0 0 0 0 0 0 0 0 1 1 1 0 0 0 0 0 0 0 0 0 0 0 0 0 0 0 0 0 0 0 0 0 0 0 0 0 0 0 0 1 1 1
0 0 0 0 0 0 -0 0 0 0 0 0 0 1 0 1 1 0 0 0 0 0 0 0 1 1 0 0 0 0 0 0 0 0 0 0 0 0 0 0 0 0 0 0 0 0 0 0 1
0 0 0 0 0 0 0 0 0 0 0 0 0 1 0 0 1 1 1 0 0 0 0 0 0 0 0 0 0 0 0 0 0 0 0 0 0 0 0 0 0 0 0 0 0 0 0 0 0
-0 0 0 0 0 0 0 0 0 0 0 0 0 0 0 0 1 1 1 0 0 0 0 0 0 0 0 0 0 0 0 0 0 0 0 0 0 0 0 0 0 0 0 0 0 0 0 0 0
-0 -0 -0 -0 0 -0 0 -0 0 0 0 0 0 0 1 1 1 1 1 0 0 0 0 0 0 0 0 0 0 0 0 0 0 0 0 0 0 0 0 0 0 0 0 0 0 0 0 0 0
-0 -0 -0 -0 -0 0 0 0 0 0 0 0 0 0 0 1 1 1 1 0 0 0 0 0 0 0 0 0 0 0 0 0 0 0 0 0 0 0 0 0 0 0 0 0 0 0 0 0 0
-0 0 0 0 0 0 0 0 0 0 0 0 0 1 0 1 1 1 1 0 0 0 0 0 0 0 0 0 0 0 0 0 0 0 0 0 0 0 0 0 0 0 0 0 0 0 0 0 0
0 0 0 0 0 0 0 0 0 0 0 0 0 0 1 1 1 1 0 0 0 0 0 0 0 0 0 0 0 0 0 0 0 0 0 0 0 0 0 0 0 0 0 0 0 0 0 0 0
0 0 0 -0 -0 -0 0 0 0 0 0 0 0 0 0 0 1 1 0 0 0 0 0 0 0 0 0 0 0 0 0 0 0 0 0 0 0 0 0 0 0 0 0 0 0 0 0 0 0
0 0 0 0 0 0 0 0 0 0 0 0 0 0 0 1 0 0 0 0 0 0 0 0 0 0 0 0 0 0 0 0 0 0 0 0 0 0 0 0 0 0 0 0 0 0 0 0 0
0 0 0 0 0 0 0 0 0 0 0 0 0 0 0 0 0 0 0 0 0 0 0 0 0 0 0 0 0 0 0 0 0 0 0 0 0 0 0 0 0 0 0 0 0 0 0 0 0
0 0 0 0 0 0 0 0 0 0 0 0 0 0 0 0 0 0 0 0 0 0 0 0 0 0 0 0 0 0 0 0 0 0 0 0 0 0 0 0 0 0 0 0 0 0 0 0 0
0 0 0 0 0 0 0 0 0 0 0 0 0 0 0 0 0 0 0 0 0 0 0 0 -0 -0 0 0 0 0 0 0 0 0 0 0 0 0 0 0 0 0 0 0 0 0 0 0 0
Wind_Speed_500mb
3 5 4 6 11 6 11 11 2 11 12 5 9 2 10 6 11 5 13 25 38 41 40 39 33 30 27 25 21 18 15 13 12 9 7 7 7 7 7 7 6 8 10 11 13 14 14 16 17
5 4 5 9 8 10 12 9 9 9 12 14 11 6 6 12 5 5 16 30 43 45 41 39 37 32 29 24 20 17 14 12 10 10 10 8 6 7 7 8 10 12 14 16 19 20 21 22 22
5 6 12 2 4 12 16 10 13 17 13 3 5 3 5 7 4 9 8 33 45 40 37 36 35 31 27 22 19 17 16 15 13 10 8 7 6 7 7 9 11 11 12 13 14 16 18 19 22
7 5 8 6 24 16 19 14 13 17 10 4 5 5 3 2 4 9 20 35 42 36 33 33 32 27 23 20 17 16 13 12 9 7 7 6 4 5 5 5 6 8 10 12 13 14 15 16 16
7 8 12 22 24 17 8 8 8 11 5 3 1 11 6 2 4 14 24 38 37 32 29 30 29 25 21 19 16 14 11 8 7 7 5 3 2 2 1 2 6 8 9 10 12 14 14 13 12
8 6 12 20 19 12 7 7 5 5 3 3 4 5 7 4 12 20 29 34 30 29 28 26 28 24 22 18 15 12 10 9 9 7 4 1 2 3 2 5 7 9 9 11 13 15 17 15 12
9 11 17 7 16 19 7 3 6 2 4 3 4 3 6 10 17 22 26 29 29 27 27 27 26 26 23 19 16 15 15 13 9 5 3 3 3 2 3 6 8 7 7 9 10 12 14 15 13
12 8 11 7 4 20 7 7 3 8 2 3 5 4 10 16 24 28 27 29 29 27 27 25 24 21 19 17 19 16 14 11 8 5 2 3 4 6 6 8 9 8 9 10 12 12 12 13 14
6 11 8 13 5 12 7 8 1 3 6 12 10 8 3 22 29 29 29 29 28 28 28 27 25 23 21 17 16 16 17 13 9 4 5 3 4 5 7 13 11 9 10 11 14 17 20 20 22
9 7 12 9 9 7 6 5 1 9 11 17 16 9 10 26 32 33 33 34 32 29 29 27 28 26 25 20 17 15 13 9 9 9 6 4 7 5 3 7 6 9 12 15 19 23 25 20 18
4 12 8 8 6 10 15 11 11 16 14 8 12 16 19 27 30 29 30 28 26 27 27 27 27 31 26 18 17 18 17 16 12 12 9 5 7 8 9 10 14 16 23 18 21 23 23 23 25
9 4 6 4 3 10 15 14 12 14 16 13 11 7 21 24 25 28 26 24 25 26 27 26 28 32 32 23 22 20 19 20 16 9 12 10 9 13 14 15 18 21 23 24 22 24 26 29 30
10 8 8 8 16 13 16 12 14 5 11 10 7 7 16 19 22 23 22 22 24 25 26 24 27 32 27 31 23 23 23 19 20 17 18 17 16 18 18 22 25 27 30 31 32 36 41 33 36
14 16 9 4 5 7 19 4 8 6 6 3 3 6 11 17 18 19 22 24 23 22 22 23 28 33 34 34 33 27 27 30 28 29 24 24 20 23 26 30 34 36 39 51 44 46 45 43 39
11 12 8 8 7 8 18 13 1 4 3 1 3 7 10 12 17 17 15 19 16 17 20 25 28 35 37 40 41 40 46 36 41 33 28 30 33 37 41 44 38 40 45 47 49 46 46 56 55
10 7 7 10 6 4 9 6 6 4 8 6 5 7 10 11 11 11 12 14 11 12 19 26 25 33 31 33 40 40 45 32 26 37 36 37 38 36 40 41 36 35 38 41 43 47 51 51 53
17 15 9 8 4 6 9 18 6 6 8 11 10 9 9 11 10 9 9 10 12 15 13 8 13 15 20 20 25 27 29 19 19 25 28 33 34 33 38 28 31 36 39 45 51 52 49 51 46
13 18 15 15 8 12 16 18 6 12 13 13 12 12 9 11 8 6 6 8 6 5 6 10 14 12 7 7 10 10 11 12 14 15 17 23 25 30 29 25 28 30 33 37 42 43 43 49 50
18 19 20 11 6 16 26 18 16 22 22 22 19 18 13 12 10 7 2 5 7 8 9 17 23 25 18 10 7 10 10 7 6 12 20 23 19 16 15 16 22 27 29 35 32 36 40 41 45
22 23 22 12 2 15 32 30 30 25 24 22 22 21 19 19 15 13 13 12 14 13 17 23 26 19 17 9 7 9 10 8 11 16 11 9 13 14 13 22 19 26 28 32 31 36 44 47 49
31 29 23 32 35 28 29 32 19 16 25 16 14 18 19 21 20 17 17 18 18 16 18 21 17 11 10 9 2 2 2 4 2 2 2 9 16 16 18 24 26 27 29 34 38 37 40 49 51
33 27 33 29 31 28 7 28 32 9 20 25 26 24 24 22 22 20 20 20 16 15 16 16 10 5 3 8 1 7 4 4 7 4 3 7 16 17 17 26 30 29 36 30 34 36 39 42 50
33 30 30 31 34 35 33 19 23 11 14 25 25 26 26 26 24 23 20 19 17 15 13 11 7 4 3 3 5 7 11 6 2 2 7 11 17 16 16 23 28 36 27 29 33 35 37 39 42
23 30 36 34 30 27 20 14 22 20 22 23 21 21 27 30 26 24 20 16 14 14 12 10 8 3 2 4 13 13 5 1 2 4 4 9 13 17 20 31 31 27 28 31 35 37 36 36 37
14 25 24 25 22 19 10 15 25 25 17 13 20 26 30 30 26 22 18 14 15 14 12 10 8 7 13 15 10 6 5 4 4 7 10 15 11 16 19 34 29 26 31 33 34 34 34 34 35
21 18 20 34 27 32 34 21 10 9 6 7 11 27 29 29 25 22 16 13 13 14 13 12 11 13 13 11 6 4 12 6 10 17 17 9 12 17 27 26 27 31 30 30 34 30 30 30 29
14 19 14 22 36 20 25 13 15 7 4 6 18 23 26 28 28 22 16 16 16 15 15 13 13 12 9 4 1 11 16 14 18 27 19 16 22 22 21 25 24 26 25 28 31 29 29 27 25
23 10 21 15 20 28 25 18 16 6 13 10 18 22 26 30 30 26 19 20 19 18 15 14 11 8 4 5 8 9 13 17 22 12 16 22 27 27 24 25 21 24 24 23 27 27 26 25 23
13 22 12 11 13 27 27 13 5 11 17 16 17 26 31 37 33 23 19 21 21 18 15 14 11 9 9 10 13 14 12 19 17 16 19 23 28 27 26 24 24 24 25 24 25 24 24 25 23
18 27 30 21 29 16 24 23 11 13 13 11 6 23 33 37 32 22 20 22 21 17 14 11 14 15 15 16 15 15 22 28 19 18 23 26 25 26 26 25 25 26 26 26 25 25 25 27 27
Wind_Direction_500mb
325 4 285 269 232 211 112 99 82 124 148 96 139 246 7 356 352 33 165 174 168 168 174 177 179 180 183 185 185 185 183 185 188 190 202 202 203 218 232 244 254 269 276 276 275 276 276 275 272
237 274 269 244 244 171 98 115 127 67 96 119 147 192 224 75 68 136 144 182 171 170 173 178 181 186 188 189 189 188 190 188 185 182 192 206 214 232 252 275 286 291 293 292 290 288 286 282 280
339 285 269 223 169 85 101 106 96 104 123 127 167 254 360 59 97 155 183 172 166 170 174 180 185 190 195 192 190 188 181 182 184 187 201 220 241 269 285 298 304 307 308 302 298 296 295 290 286
312 252 225 103 102 95 81 104 113 141 168 245 4 133 78 120 91 153 155 157 164 170 171 190 187 191 192 192 189 192 189 188 190 202 208 224 250 269 291 304 314 324 327 325 326 321 317 314 312
314 263 133 111 91 101 105 100 151 130 101 108 289 66 40 115 164 154 155 158 168 168 170 186 186 192 189 186 193 192 189 197 191 183 189 196 212 252 205 11 4 6 10 9 4 355 345 333 320
226 243 150 103 96 107 124 168 156 180 155 92 269 341 57 159 141 148 152 162 169 170 171 188 190 189 185 192 194 194 193 190 185 177 168 128 56 16 9 4 6 13 15 19 17 12 4 1 351
327 259 76 115 102 113 74 180 210 145 216 158 281 313 91 163 165 156 158 166 173 179 176 186 187 189 192 193 196 198 194 186 178 154 58 21 360 11 352 344 351 357 353 357 4 10 5 3 349
305 272 170 101 51 88 78 209 282 244 149 137 208 268 110 187 170 164 168 173 178 184 184 184 190 194 193 207 201 201 193 184 166 150 137 52 27 3 353 332 316 308 313 331 334 336 338 333 330
303 229 158 112 180 79 81 239 181 268 216 226 215 261 163 160 168 169 176 180 185 188 191 190 198 199 189 202 219 205 198 187 175 141 71 56 85 301 303 288 280 299 318 307 330 328 326 322 317
274 285 69 27 56 21 152 300 181 258 212 231 217 221 182 173 175 181 186 188 189 190 195 198 201 200 192 191 195 186 202 196 185 180 184 146 220 240 286 279 299 283 297 307 318 318 319 320 315
75 17 58 79 356 299 304 280 257 272 283 280 273 226 189 184 188 193 198 195 193 195 200 202 212 207 197 199 203 193 193 201 206 206 193 224 229 275 289 297 307 305 304 317 302 308 306 289 295
291 92 309 13 306 314 303 313 273 284 343 323 312 282 195 195 200 204 204 200 197 199 206 206 207 221 202 208 207 207 208 209 204 221 236 242 280 281 285 287 287 297 305 297 304 296 295 291 289
256 330 316 258 289 285 311 275 317 328 334 326 307 213 202 202 208 210 204 202 203 206 210 208 208 226 218 213 213 208 215 229 232 232 259 262 261 279 282 281 286 288 293 288 278 289 280 285 285
337 315 302 274 273 280 304 327 284 99 340 360 84 157 182 195 198 197 201 203 206 213 218 217 224 232 229 229 221 236 237 237 240 246 247 266 271 277 282 288 289 289 285 278 283 283 281 275 275
296 292 172 124 54 14 321 225 304 349 338 289 132 143 152 172 184 193 200 204 216 231 235 245 245 242 241 247 247 240 239 240 248 241 251 261 275 280 285 286 290 289 287 290 286 280 278 276 274
269 241 253 93 304 92 288 346 107 309 286 253 189 166 156 164 172 182 193 204 230 249 265 269 244 239 238 249 254 255 245 249 250 245 253 266 281 285 293 283 284 282 294 303 296 291 284 282 279
212 273 251 266 224 306 254 313 109 265 245 244 226 193 167 163 162 180 204 231 251 274 266 243 189 209 232 257 264 260 260 242 237 251 261 281 282 293 296 289 297 300 303 301 297 297 292 288 283
268 314 310 264 115 246 262 265 230 229 231 228 216 203 199 178 160 188 239 241 248 206 196 164 152 163 160 240 255 225 182 206 254 267 291 297 293 299 301 306 305 308 309 305 304 306 301 296 289
306 297 293 294 314 272 300 298 283 229 226 228 217 210 206 178 157 129 170 139 133 155 160 142 135 127 118 106 138 187 189 199 222 285 291 301 305 314 329 321 318 322 321 317 321 317 312 303 299
279 282 280 294 258 290 302 304 289 234 247 243 215 197 184 167 152 124 108 115 123 124 130 136 142 121 99 86 143 169 182 214 284 308 304 309 326 332 337 324 333 319 325 319 313 318 313 304 302
261 270 286 297 313 276 260 274 235 234 242 238 219 180 175 171 155 133 116 116 119 114 122 136 136 119 86 47 82 145 223 281 108 82 9 326 325 331 331 327 327 327 330 316 319 315 315 309 303
270 276 291 301 287 293 327 291 298 221 227 221 215 205 193 169 154 136 127 118 125 122 130 141 155 180 343 17 222 212 213 125 159 141 289 319 328 328 330 332 330 332 332 321 320 317 317 313 306
298 296 301 298 291 292 285 243 282 202 250 242 216 208 196 177 157 139 132 127 133 138 145 157 170 228 298 276 156 113 134 112 115 331 340 326 329 341 340 341 335 331 336 325 324 324 319 322 314
290 277 270 262 260 258 294 321 292 310 356 320 177 193 174 166 152 139 138 138 143 143 149 153 160 219 206 147 128 132 116 98 212 274 322 326 332 329 322 336 337 338 334 329 333 326 327 323 322
246 257 271 265 248 283 168 287 298 332 344 305 175 176 165 157 150 145 144 144 136 146 156 153 150 143 135 130 126 113 60 19 354 360 321 342 328 321 318 336 336 340 336 336 332 330 335 328 320
300 306 290 299 302 312 318 280 9 19 8 334 156 158 156 154 148 143 143 140 148 155 157 151 148 144 139 140 126 30 360 341 336 325 325 327 333 328 324 334 335 337 339 336 339 340 331 327 327
290 252 350 301 271 250 276 297 243 167 198 208 171 170 158 154 145 132 147 150 149 153 156 157 154 151 145 141 289 305 312 312 311 323 333 327 336 322 316 330 330 331 328 335 342 340 335 326 332
253 329 277 261 287 289 297 280 292 166 11 189 208 195 168 156 143 143 156 152 150 148 157 155 162 175 201 242 266 279 304 319 323 313 320 324 330 328 324 326 323 325 321 324 329 336 331 332 329
245 245 230 300 295 291 290 304 71 10 352 337 201 202 176 161 152 155 150 158 163 165 166 182 191 223 257 263 269 286 291 316 312 299 308 317 321 323 321 322 321 322 321 320 320 327 330 323 323
284 291 303 288 278 261 288 286 84 62 31 30 156 180 176 167 168 155 153 161 168 175 183 207 229 246 264 265 262 276 296 318 306 296 302 310 313 320 319 315 317 319 319 318 317 319 317 317 311
Wind_Speed_850mb
3 5 4 6 11 6 11 11 2 11 12 5 9 2 10 6 11 5 13 25 38 41 40 39 33 30 27 25 21 18 15 13 12 9 7 7 7 7 7 7 6 8 10 11 13 14 14 16 17
5 4 5 9 8 10 12 9 9 9 12 14 11 6 6 12 5 5 16 30 43 45 41 39 37 32 29 24 20 17 14 12 10 10 10 8 6 7 7 8 10 12 14 16 19 20 21 22 22
5 6 12 2 4 12 16 10 13 17 13 3 5 3 5 7 4 9 8 33 45 40 37 36 35 31 27 22 19 17 16 15 13 10 8 7 6 7 7 9 11 11 12 13 14 16 18 19 22
7 5 8 6 24 16 19 14 13 17 10 4 5 5 3 2 4 9 20 35 42 36 33 33 32 27 23 20 17 16 13 12 9 7 7 6 4 5 5 5 6 8 10 12 13 14 15 16 16
7 8 12 22 24 17 8 8 8 11 5 3 1 11 6 2 4 14 24 38 37 32 29 30 29 25 21 19 16 14 11 8 7 7 5 3 2 2 1 2 6 8 9 10 12 14 14 13 12
8 6 12 20 19 12 7 7 5 5 3 3 4 5 7 4 12 20 29 34 30 29 28 26 28 24 22 18 15 12 10 9 9 7 4 1 2 3 2 5 7 9 9 11 13 15 17 15 12
9 11 17 7 16 19 7 3 6 2 4 3 4 3 6 10 17 22 26 29 29 27 27 27 26 26 23 19 16 15 15 13 9 5 3 3 3 2 3 6 8 7 7 9 10 12 14 15 13
12 8 11 7 4 20 7 7 3 8 2 3 5 4 10 16 24 28 27 29 29 27 27 25 24 21 19 17 19 16 14 11 8 5 2 3 4 6 6 8 9 8 9 10 12 12 12 13 14
6 11 8 13 5 12 7 8 1 3 6 12 10 8 3 22 29 29 29 29 28 28 28 27 25 23 21 17 16 16 17 13 9 4 5 3 4 5 7 13 11 9 10 11 14 17 20 20 22
9 7 12 9 9 7 6 5 1 9 11 17 16 9 10 26 32 33 33 34 32 29 29 27 28 26 25 20 17 15 13 9 9 9 6 4 7 5 3 7 6 9 12 15 19 23 25 20 18
4 12 8 8 6 10 15 11 11 16 14 8 12 16 19 27 30 29 30 28 26 27 27 27 27 31 26 18 17 18 17 16 12 12 9 5 7 8 9 10 14 16 23 18 21 23 23 23 25
9 4 6 4 3 10 15 14 12 14 16 13 11 7 21 24 25 28 26 24 25 26 27 26 28 32 32 23 22 20 19 20 16 9 12 10 9 13 14 15 18 21 23 24 22 24 26 29 30
10 8 8 8 16 13 16 12 14 5 11 10 7 7 16 19 22 23 22 22 24 25 26 24 27 32 27 31 23 23 23 19 20 17 18 17 16 18 18 22 25 27 30 31 32 36 41 33 36
14 16 9 4 5 7 19 4 8 6 6 3 3 6 11 17 18 19 22 24 23 22 22 23 28 33 34 34 33 27 27 30 28 29 24 24 20 23 26 30 34 36 39 51 44 46 45 43 39
11 12 8 8 7 8 18 13 1 4 3 1 3 7 10 12 17 17 15 19 16 17 20 25 28 35 37 40 41 40 46 36 41 33 28 30 33 37 41 44 38 40 45 47 49 46 46 56 55
10 7 7 10 6 4 9 6 6 4 8 6 5 7 10 11 11 11 12 14 11 12 19 26 25 33 31 33 40 40 45 32 26 37 36 37 38 36 40 41 36 35 38 41 43 47 51 51 53
17 15 9 8 4 6 9 18 6 6 8 11 10 9 9 11 10 9 9 10 12 15 13 8 13 15 20 20 25 27 29 19 19 25 28 33 34 33 38 28 31 36 39 45 51 52 49 51 46
13 18 15 15 8 12 16 18 6 12 13 13 12 12 9 11 8 6 6 8 6 5 6 10 14 12 7 7 10 10 11 12 14 15 17 23 25 30 29 25 28 30 33 37 42 43 43 49 50
18 19 20 11 6 16 26 18 16 22 22 22 19 18 13 12 10 7 2 5 7 8 9 17 23 25 18 10 7 10 10 7 6 12 20 23 19 16 15 16 22 27 29 35 32 36 40 41 45
22 23 22 12 2 15 32 30 30 25 24 22 22 21 19 19 15 13 13 12 14 13 17 23 26 19 17 9 7 9 10 8 11 16 11 9 13 14 13 22 19 26 28 32 31 36 44 47 49
31 29 23 32 35 28 29 32 19 16 25 16 14 18 19 21 20 17 17 18 18 16 18 21 17 11 10 9 2 2 2 4 2 2 2 9 16 16 18 24 26 27 29 34 38 37 40 49 51
33 27 33 29 31 28 7 28 32 9 20 25 26 24 24 22 22 20 20 20 16 15 16 16 10 5 3 8 1 7 4 4 7 4 3 7 16 17 17 26 30 29 36 30 34 36 39 42 50
33 30 30 31 34 35 33 19 23 11 14 25 25 26 26 26 24 23 20 19 17 15 13 11 7 4 3 3 5 7 11 6 2 2 7 11 17 16 16 23 28 36 27 29 33 35 37 39 42
23 30 36 34 30 27 20 14 22 20 22 23 21 21 27 30 26 24 20 16 14 14 12 10 8 3 2 4 13 13 5 1 2 4 4 9 13 17 20 31 31 27 28 31 35 37 36 36 37
14 25 24 25 22 19 10 15 25 25 17 13 20 26 30 30 26 22 18 14 15 14 12 10 8 7 13 15 10 6 5 4 4 7 10 15 11 16 19 34 29 26 31 33 34 34 34 34 35
21 18 20 34 27 32 34 21 10 9 6 7 11 27 29 29 25 22 16 13 13 14 13 12 11 13 13 11 6 4 12 6 10 17 17 9 12 17 27 26 27 31 30 30 34 30 30 30 29
14 19 14 22 36 20 25 13 15 7 4 6 18 23 26 28 28 22 16 16 16 15 15 13 13 12 9 4 1 11 16 14 18 27 19 16 22 22 21 25 24 26 25 28 31 29 29 27 25
23 10 21 15 20 28 25 18 16 6 13 10 18 22 26 30 30 26 19 20 19 18 15 14 11 8 4 5 8 9 13 17 22 12 16 22 27 27 24 25 21 24 24 23 27 27 26 25 23
13 22 12 11 13 27 27 13 5 11 17 16 17 26 31 37 33 23 19 21 21 18 15 14 11 9 9 10 13 14 12 19 17 16 19 23 28 27 26 24 24 24 25 24 25 24 24 25 23
18 27 30 21 29 16 24 23 11 13 13 11 6 23 33 37 32 22 20 22 21 17 14 11 14 15 15 16 15 15 22 28 19 18 23 26 25 26 26 25 25 26 26 26 25 25 25 27 27
Wind_Direction_850mb
325 4 285 269 232 211 112 99 82 124 148 96 139 246 7 356 352 33 165 174 168 168 174 177 179 180 183 185 185 185 183 185 188 190 202 202 203 218 232 244 254 269 276 276 275 276 276 275 272
237 274 269 244 244 171 98 115 127 67 96 119 147 192 224 75 68 136 144 182 171 170 173 178 181 186 188 189 189 188 190 188 185 182 192 206 214 232 252 275 286 291 293 292 290 288 286 282 280
339 285 269 223 169 85 101 106 96 104 123 127 167 254 360 59 97 155 183 172 166 170 174 180 185 190 195 192 190 188 181 182 184 187 201 220 241 269 285 298 304 307 308 302 298 296 295 290 286
312 252 225 103 102 95 81 104 113 141 168 245 4 133 78 120 91 153 155 157 164 170 171 190 187 191 192 192 189 192 189 188 190 202 208 224 250 269 291 304 314 324 327 325 326 321 317 314 312
314 263 133 111 91 101 105 100 151 130 101 108 289 66 40 115 164 154 155 158 168 168 170 186 186 192 189 186 193 192 189 197 191 183 189 196 212 252 205 11 4 6 10 9 4 355 345 333 320
226 243 150 103 96 107 124 168 156 180 155 92 269 341 57 159 141 148 152 162 169 170 171 188 190 189 185 192 194 194 193 190 185 177 168 128 56 16 9 4 6 13 15 19 17 12 4 1 351
327 259 76 115 102 113 74 180 210 145 216 158 281 313 91 163 165 156 158 166 173 179 176 186 187 189 192 193 196 198 194 186 178 154 58 21 360 11 352 344 351 357 353 357 4 10 5 3 349
305 272 170 101 51 88 78 209 282 244 149 137 208 268 110 187 170 164 168 173 178 184 184 184 190 194 193 207 201 201 193 184 166 150 137 52 27 3 353 332 316 308 313 331 334 336 338 333 330
303 229 158 112 180 79 81 239 181 268 216 226 215 261 163 160 168 169 176 180 185 188 191 190 198 199 189 202 219 205 198 187 175 141 71 56 85 301 303 288 280 299 318 307 330 328 326 322 317
274 285 69 27 56 21 152 300 181 258 212 231 217 221 182 173 175 181 186 188 189 190 195 198 201 200 192 191 195 186 202 196 185 180 184 146 220 240 286 279 299 283 297 307 318 318 319 320 315
75 17 58 79 356 299 304 280 257 272 283 280 273 226 189 184 188 193 198 195 193 195 200 202 212 207 197 199 203 193 193 201 206 206 193 224 229 275 289 297 307 305 304 317 302 308 306 289 295
291 92 309 13 306 314 303 313 273 284 343 323 312 282 195 195 200 204 204 200 197 199 206 206 207 221 202 208 207 207 208 209 204 221 236 242 280 281 285 287 287 297 305 297 304 296 295 291 289
256 330 316 258 289 285 311 275 317 328 334 326 307 213 202 202 208 210 204 202 203 206 210 208 208 226 218 213 213 208 215 229 232 232 259 262 261 279 282 281 286 288 293 288 278 289 280 285 285
337 315 302 274 273 280 304 327 284 99 340 360 84 157 182 195 198 197 201 203 206 213 218 217 224 232 229 229 221 236 237 237 240 246 247 266 271 277 282 288 289 289 285 278 283 283 281 275 275
296 292 172 124 54 14 321 225 304 349 338 289 132 143 152 172 184 193 200 204 216 231 235 245 245 242 241 247 247 240 239 240 248 241 251 261 275 280 285 286 290 289 287 290 286 280 278 276 274
269 241 253 93 304 92 288 346 107 309 286 253 189 166 156 164 172 182 193 204 230 249 265 269 244 239 238 249 254 255 245 249 250 245 253 266 281 285 293 283 284 282 294 303 296 291 284 282 279
212 273 251 266 224 306 254 313 109 265 245 244 226 193 167 163 162 180 204 231 251 274 266 243 189 209 232 257 264 260 260 242 237 251 261 281 282 293 296 289 297 300 303 301 297 297 292 288 283
268 314 310 264 115 246 262 265 230 229 231 228 216 203 199 178 160 188 239 241 248 206 196 164 152 163 160 240 255 225 182 206 254 267 291 297 293 299 301 306 305 308 309 305 304 306 301 296 289
306 297 293 294 314 272 300 298 283 229 226 228 217 210 206 178 157 129 170 139 133 155 160 142 135 127 118 106 138 187 189 199 222 285 291 301 305 314 329 321 318 322 321 317 321 317 312 303 299
279 282 280 294 258 290 302 304 289 234 247 243 215 197 184 167 152 124 108 115 123 124 130 136 142 121 99 86 143 169 182 214 284 308 304 309 326 332 337 324 333 319 325 319 313 318 313 304 302
261 270 286 297 313 276 260 274 235 234 242 238 219 180 175 171 155 133 116 116 119 114 122 136 136 119 86 47 82 145 223 281 108 82 9 326 325 331 331 327 327 327 330 316 319 315 315 309 303
270 276 291 301 287 293 327 291 298 221 227 221 215 205 193 169 154 136 127 118 125 122 130 141 155 180 343 17 222 212 213 125 159 141 289 319 328 328 330 332 330 332 332 321 320 317 317 313 306
298 296 301 298 291 292 285 243 282 202 250 242 216 208 196 177 157 139 132 127 133 138 145 157 170 228 298 276 156 113 134 112 115 331 340 326 329 341 340 341 335 331 336 325 324 324 319 322 314
290 277 270 262 260 258 294 321 292 310 356 320 177 193 174 166 152 139 138 138 143 143 149 153 160 219 206 147 128 132 116 98 212 274 322 326 332 329 322 336 337 338 334 329 333 326 327 323 322
246 257 271 265 248 283 168 287 298 332 344 305 175 176 165 157 150 145 144 144 136 146 156 153 150 143 135 130 126 113 60 19 354 360 321 342 328 321 318 336 336 340 336 336 332 330 335 328 320
300 306 290 299 302 312 318 280 9 19 8 334 156 158 156 154 148 143 143 140 148 155 157 151 148 144 139 140 126 30 360 341 336 325 325 327 333 328 324 334 335 337 339 336 339 340 331 327 327
290 252 350 301 271 250 276 297 243 167 198 208 171 170 158 154 145 132 147 150 149 153 156 157 154 151 145 141 289 305 312 312 311 323 333 327 336 322 316 330 330 331 328 335 342 340 335 326 332
253 329 277 261 287 289 297 280 292 166 11 189 208 195 168 156 143 143 156 152 150 148 157 155 162 175 201 242 266 279 304 319 323 313 320 324 330 328 324 326 323 325 321 324 329 336 331 332 329
245 245 230 300 295 291 290 304 71 10 352 337 201 202 176 161 152 155 150 158 163 165 166 182 191 223 257 263 269 286 291 316 312 299 308 317 321 323 321 322 321 322 321 320 320 327 330 323 323
284 291 303 288 278 261 288 286 84 62 31 30 156 180 176 167 168 155 153 161 168 175 183 207 229 246 264 265 262 276 296 318 306 296 302 310 313 320 319 315 317 319 319 318 317 319 317 317 311